Weather Roundup
Issued by NWS Springfield, MO

Home | Current Version | Previous Version | Text Only | Print | Product List | Glossary On
Versions: 1 2 3 4 5 6 7 8 9 10 11 12 13 14 15 16 17 18 19 20 21 22 23 24 25 26 27 28 29 30 31 32 33 34 35 36 37 38 39 40 41 42 43 44 45 46 47 48 49 50
000
NZUS99 KSGF 131107
HRRSGF

HOURLY WEATHER
NATIONAL WEATHER SERVICE SPRINGFIELD MO
500 AM CST SAT FEB 13 2016

......SGF CWA......

CITY           SKY/WX    TMP DP  RH WIND       PRES   REMARKS
SPRINGFIELD    CLOUDY    22   3  44 NE10      30.50F WCI  11
JOPLIN         CLOUDY    24   3  40 NE9       30.53R WCI  14
WEST PLAINS    CLOUDY    22   5  48 N13       30.52R WCI  10
ROLLA          CLOUDY    15   1  53 N9        30.56R WCI   3
OSAGE BEACH    CLOUDY    18   1  49 N6        30.58F WCI   9

......SURROUNDING SGF CWA......

CITY           SKY/WX    TMP DP  RH WIND       PRES   REMARKS
CHANUTE        CLOUDY    25   9  50 E8        30.54S WCI  16
PARSONS        CLOUDY    26   8  46 NE6       30.53F WCI  19
COFFEYVILLE    CLOUDY    26   7  44 NE10      30.53F WCI  16
EMPORIA        CLOUDY    21  -1  38 NE13      30.53F WCI   9
GROVE OK       CLOUDY    32  14  47 NE7       30.53S WCI  26
ROGERS AR      CLOUDY    28  10  46 NE10      30.48F WCI  19
SILOAM SPRINGS CLOUDY    28   9  43 NE9       30.48R WCI  20
HARRISON AR    CLOUDY    27  12  53 NE8       30.49R WCI  19
NEAR YELLVILLE CLOUDY    28   5  37 N6        30.52R WCI  22

......KANSAS AND MISSOURI......

CITY           SKY/WX    TMP DP  RH WIND       PRES   REMARKS
KANSAS CTY INT CLOUDY    16   4  59 E9        30.59R WCI   4
DOWNTOWN KC    CLOUDY    18   2  49 E8        30.62R WCI   8
COLUMBIA       CLOUDY    13   3  64 NE12      30.61S WCI  -1
SEDALIA        CLOUDY    16   3  56 NE9       30.62S WCI   4
ST JOSEPH      CLOUDY    15   2  56 NE7       30.64R WCI   5
ST LOUIS       PTCLDY    13   2  61 NW8       30.63R WCI   2
SPIRIT OF STL  PTCLDY    12   2  64 N7        30.64R WCI   1
KIRKSVILLE     CLOUDY     6  -2  69 N7        30.62S WCI  -6
WICHITA        CLOUDY    25  11  55 E10       30.48S WCI  15
TOPEKA         CLOUDY    20   5  52 NE7       30.59S WCI  11
OLATHE         CLOUDY    17   1  49 NE7       30.57S WCI   8

......TENNESSEE......

CITY           SKY/WX    TMP DP  RH WIND       PRES   REMARKS
MEMPHIS        PTCLDY    30  10  43 NE9       30.50R WCI  22
NASHVILLE      CLEAR     23   8  52 N10       30.48R WCI  12

......ARKANSAS.......

CITY           SKY/WX    TMP DP  RH WIND       PRES   REMARKS
FAYETTEVILLE   CLOUDY    29  15  56 NE6       30.47S WCI  23
FT SMITH       CLOUDY    40  21  46 NE7       30.47S
LITTLE ROCK    CLOUDY    36  13  38 NE12      30.52R WCI  28

......OKLAHOMA.......

CITY           SKY/WX    TMP DP  RH WIND       PRES   REMARKS
TULSA          CLEAR     31  17  56 NE12      30.49F WCI  22
PONCA CITY     CLEAR     27  13  55 E8        30.47F WCI  19
MCALESTER      PTCLDY    39  27  62 N10       30.44S WCI  32
OKLAHOMA CITY  CLEAR     34  23  64 NE12      30.41F WCI  25

......IOWA............

CITY           SKY/WX    TMP DP  RH WIND       PRES   REMARKS
DES MOINES     CLOUDY     3  -5  69 N5        30.63S WCI  -6
QUAD CITIES    PTCLDY     5  -6  60 NW7       30.62R WCI  -7

......ILLINOIS........

CITY           SKY/WX    TMP DP  RH WIND       PRES   REMARKS
QUINCY         PTCLDY     3  -4  72 N6        30.62S WCI  -8
CHICAGO        PTCLDY     3 -10  54 NW12      30.54R WCI -13



USA.gov is the U.S. government's official web portal to all federal, state and local government web resources and services.